Location: Unspecified
(0.0000°N, 0.0000°E)
Time: 20:35:33
(UTC+00:00)

DELTA 1 DEB - Visible Passes

Search period start: 12 January 2025 00:00
Search period end: 22 January 2025 00:00
Orbit: 683 x 736 km, 97.8° (Epoch: 07 January)

Date Brightness Start Highest point End Pass type
(mag) Time Alt. Az. Time Alt. Az. Time Alt. Az.
12 Jan ? 04:19:26 10° E 04:19:47 10° ENE 04:20:08 10° ENE visible
13 Jan ? 05:00:23 10° SSE 05:04:46 41° ENE 05:09:08 10° N visible
15 Jan ? 04:52:53 10° SE 04:57:04 33° ENE 05:01:13 10° NNE visible
16 Jan ? 05:37:29 10° S 05:42:04 58° WSW 05:46:37 10° NNW visible
17 Jan ? 04:45:28 10° SE 04:49:22 26° ENE 04:53:14 10° NNE visible
18 Jan ? 05:29:42 10° S 05:34:21 74° WSW 05:38:59 10° NNW visible
19 Jan ? 04:38:08 10° SE 04:41:39 21° ENE 04:45:09 10° NNE visible
20 Jan ? 05:21:57 10° SSE 05:26:37 88° ENE 05:31:17 10° N visible
21 Jan ? 04:30:54 10° ESE 04:33:55 17° ENE 04:36:57 10° NE visible
